TIME,DELAY(SENSOR),PRES,OXYGEN,RAWTEMP,T(OPTODE),TCPHASE,FLUOR,BETA(BETA700),BETA(BETA412),BETA(BETA440),CDOM,C(CSC),ED(ED412.20),ED(ED444.00),ED(ED489.60),ED(ED554.30),LU(LU412.10),LU(LU443.90),LU(LU489.70),LU(LU554.70),COMP,TILTX,TILTY,CHECK
1371010039,5814,866.2899780273438000,32.1842384338378900,562.4097290039062000,4.4111900329589840,56.7590293884277340,54,100,98,78,80,15620,0,0,0,0,2147122285,2147771821,2147570258,2147566281,2752,2,13,46645
1371013635,5810,937.4000244140625000,36.6753196716308600,569.6311035156250000,4.1870231628417970,56.1197090148925800,55,99,99,78,82,15621,0,0,0,0,2147122797,2147769462,2147571675,2147569746,253,2,13,38326
1371017235,5809,947.2800292968750000,35.1069412231445300,571.7824096679688000,4.1201567649841310,56.3870506286621100,54,99,99,77,81,15622,0,0,0,0,2147123483,2147768512,2147568219,2147568365,588,2,13,42440
1371020835,5808,977.4199829101562000,36.4851989746093750,574.7316284179688000,4.0284290313720700,56.1968002319335940,56,98,99,77,81,15619,0,0,0,0,2147122916,2147769974,2147573165,2147567012,464,2,13,29276
1371024435,5808,984.6799926757812000,30.0835895538330080,574.2894897460938000,4.0421848297119140,57.2166709899902340,55,98,99,79,81,15617,0,0,0,0,2147125851,2147774838,2147572937,2147566957,111,2,13,10731
1371028035,5810,988.5800170898438000,33.9602394104003900,573.6448974609375000,4.0622367858886720,56.5850410461425800,55,102,100,78,80,15616,0,0,0,0,2147123300,2147768384,2147570697,2147565156,90,2,13,45558
1371031635,5810,983.5999755859375000,29.8655796051025400,574.4390258789062000,4.0375328063964840,57.2581481933593750,55,97,100,79,81,15616,0,0,0,0,2147122560,2147764662,2147571766,2147570258,329,3,13,43148
1371035235,5810,981.0000000000000000,32.2863998413085940,574.8936767578125000,4.0233840942382810,56.8647689819335940,55,101,99,78,81,15617,0,0,0,0,2147123044,2147763264,2147567762,2147567981,3571,2,13,39959
1371038835,5809,986.9500122070312000,33.4663581848144500,574.1505737304688000,4.0465068817138670,56.6690902709960940,55,98,100,78,80,15574,0,0,0,0,2147120448,2147767908,2147574034,2147566080,80,3,13,60473
1371042435,5809,990.0700073242188000,32.4462814331054700,574.9953002929688000,4.0202240943908690,56.8373603820800800,54,101,100,78,81,15575,0,0,0,0,2147119771,2147767259,2147571090,2147567286,214,2,13,21758
1371046035,5810,1004.6699829101562000,37.6949501037597660,574.9215698242188000,4.0225157737731930,56.0181388854980500,55,97,100,78,81,15563,0,0,0,0,2147121508,2147767369,2147572900,2147568685,337,3,13,18560
1371049635,5810,993.7100219726562000,36.5748710632324200,573.9882812500000000,4.0515542030334470,56.1734313964843750,55,103,99,78,81,15560,0,0,0,0,2147119241,2147769654,2147574025,2147567277,292,3,13,33173
1371053235,5809,996.3499755859375000,32.5022583007812500,574.3673706054688000,4.0397610664367680,56.8230018615722660,55,97,99,78,80,15562,0,0,0,0,2147125302,2147766665,2147569764,2147568704,3453,2,13,32608
1371056835,5810,1001.0599975585938000,32.6133995056152340,573.5618286132812000,4.0648231506347660,56.7927589416503900,54,97,99,78,79,15560,0,0,0,0,2147123318,2147766025,2147571556,2147568822,52,3,13,53318
1371060435,5811,998.8200073242188000,31.8626995086669920,573.4008789062500000,4.0698280334472660,56.9153404235839840,56,98,99,77,80,15560,0,0,0,0,2147121014,2147766710,2147571858,2147569901,129,2,13,6930
1371064035,5809,1003.4299926757812000,32.0377006530761700,573.4813232421875000,4.0673260688781740,56.8916206359863300,54,98,99,79,81,15557,0,0,0,0,2147118253,2147765650,2147568886,2147569517,314,2,13,34590
1371067635,5811,998.3699951171875000,33.7413406372070300,573.7211914062500000,4.0598640441894530,56.6150703430175800,55,99,100,77,81,15558,0,0,0,0,2147124214,2147770020,2147570203,2147567433,347,2,13,59380
1371071235,5811,1000.8099975585938000,34.2606697082519500,573.6488037109375000,4.0621151924133300,56.5363883972168000,53,95,100,77,80,15554,0,0,0,0,2147119387,2147772260,2147571474,2147567387,43,3,13,56025
1371074835,5812,995.2199707031250000,36.7038612365722660,574.8767089843750000,4.0239119529724120,56.1672897338867200,55,105,101,77,80,15556,0,0,0,0,2147119926,2147767826,2147570998,2147567314,3538,2,13,9976
1371078435,5809,990.9400024414062000,36.2153015136718750,576.1660156250000000,3.9837889671325684,56.2557716369628900,55,96,100,77,80,15557,0,0,0,0,2147116690,2147766482,2147569636,2147568027,256,3,13,7689
1371082035,5811,987.7100219726562000,36.3430213928222660,576.2498168945312000,3.9811780452728270,56.2405891418457000,55,96,100,78,79,15559,0,0,0,0,2147121801,2147766528,2147572169,2147568393,49,2,13,50477
1371085635,5809,989.1699829101562000,34.8232307434082000,576.3820190429688000,3.9770619869232178,56.4766807556152340,55,97,99,78,81,15560,0,0,0,0,2147124004,2147771648,2147570020,2147565586,546,2,13,43676
1371089235,5810,996.9899902343750000,38.4035606384277340,576.4010009765625000,3.9764730930328370,55.9248886108398440,55,97,100,77,79,15556,0,0,0,0,2147122752,2147771620,2147570834,2147568182,23,2,13,51225
1371092835,5811,997.1099853515625000,35.0463790893554700,575.3109741210938000,4.0103988647460940,56.4307708740234400,54,98,99,77,80,15557,0,0,0,0,2147121563,2147768777,2147567707,2147564754,96,3,13,50087
1371096435,5810,995.1099853515625000,35.1380386352539060,575.7924194335938000,3.9954171180725098,56.4210090637207000,54,96,101,78,81,15554,0,0,0,0,2147121773,2147765760,2147572681,2147567369,109,2,13,53919
1371100035,5811,1002.5499877929688000,38.3169403076171900,575.0372924804688000,4.0189151763916020,55.9229393005371100,55,98,101,77,79,15552,0,0,0,0,2147126381,2147769874,2147571840,2147567634,3408,2,13,11980
1371103635,5807,998.5599975585938000,37.1692810058593750,575.4475708007812000,4.0061469078063965,56.1021499633789060,54,97,101,77,79,15554,0,0,0,0,2147121993,2147768612,2147572242,2147569929,3589,2,13,9909
1371107235,5808,1003.0100097656250000,39.3606300354003900,575.5728759765625000,4.0022487640380860,55.7701606750488300,55,97,99,78,82,15556,0,0,0,0,2147125750,2147765814,2147572397,2147567387,436,2,13,32975
1371110835,5812,992.3300170898438000,33.9745216369628900,576.2556152343750000,3.9809989929199220,56.6085700988769500,55,99,99,78,81,15548,0,0,0,0,2147121837,2147768374,2147570331,2147564964,3046,2,13,35465
1371114435,5811,993.8099975585938000,30.6714401245117200,576.4428710937500000,3.9751679897308350,57.1374282836914060,55,97,100,77,79,15549,0,0,0,0,2147120466,2147768859,2147573504,2147565677,218,3,13,7824
1371118035,5811,996.1900024414062000,27.9144706726074220,576.4467773437500000,3.9750440120697020,57.5982704162597660,54,98,99,77,82,15545,0,0,0,0,2147119835,2147766592,2147571840,2147568146,187,3,13,57450
1371121635,5809,988.4199829101562000,34.6262817382812500,576.4414062500000000,3.9752140045166016,56.5071907043457000,55,96,100,78,80,15548,0,0,0,0,2147122450,2147769746,2147573284,2147568329,134,3,13,30863
1371125235,5812,999.3200073242188000,34.4089012145996100,575.8035278320312000,3.9950699806213380,56.5325698852539060,55,102,99,77,82,15549,0,0,0,0,2147120630,2147771081,2147570715,2147568630,3547,2,13,26891
1371128835,5810,1004.8300170898438000,35.0633697509765600,575.6315917968750000,4.0004220008850100,56.4278602600097660,54,97,99,77,81,15546,0,0,0,0,2147121664,2147767140,2147569526,2147570249,458,2,13,34594
1371132435,5808,1007.1799926757812000,38.0163497924804700,574.7833862304688000,4.0268168449401855,55.9654312133789060,55,97,100,80,80,15548,0,0,0,0,2147120292,2147771465,2147567890,2147569993,191,3,13,49910
1371136035,5807,1003.0800170898438000,34.0292701721191400,574.0504760742188000,4.0496201515197750,56.5726585388183600,55,98,100,78,80,15539,0,0,0,0,2147118336,2147767469,2147572955,2147567076,335,2,13,20899
1371139635,5809,999.7899780273438000,37.4531402587890600,574.9810180664062000,4.0206680297851560,56.0506401062011700,54,97,100,78,81,15538,0,0,0,0,2147119323,2147769179,2147570459,2147567652,866,2,13,39600
1371143235,5812,1001.4400024414062000,34.4634208679199200,574.8057861328125000,4.0261211395263670,56.5171585083007800,55,97,99,78,80,15532,0,0,0,0,2147122002,2147768265,2147572251,2147566701,52,3,13,56130
1371146835,5808,1004.0499877929688000,35.0958786010742200,574.5452880859375000,4.0342240333557130,56.4111595153808600,55,97,98,76,80,15528,0,0,0,0,2147121965,2147772397,2147570020,2147568146,161,2,13,51616
1371150435,5813,998.8200073242188000,35.4791603088378900,574.9844970703125000,4.0205588340759280,56.3592491149902340,55,97,100,77,81,15526,0,0,0,0,2147120457,2147772050,2147572882,2147568182,3204,3,13,2686
1371154035,5809,998.9699707031250000,34.1594390869140600,575.4119873046875000,4.0072560310363770,56.5666313171386700,54,97,99,78,80,15525,0,0,0,0,2147121865,2147770614,2147575030,2147565933,3362,2,13,9527
1371154556,5811,1000.3099975585938000,33.7956809997558600,575.4495849609375000,4.0060858726501465,56.6300392150878900,56,97,98,78,81,15527,0,0,0,0,2147123465,2147769462,2147572342,2147569069,68,2,13,44394
